Pagina principală
METAR-TAF:

METAR-TAF

Aeroporturi :

Kingaroy, Australia

Latitudine: 26-34-48S, longitudine: 151-50-30E, elevație: 455 m

Observații meteo curente

Raportul a fost făcut în urmă cu 1 oră și 28 de minute, la 09:00 UTC
Vânt 1 kt de la Est
Temperatură 10°C
Umiditate 66%
Presiune 1020 hPa
Vizibilitate de 10 km sau mai mult
Nori împrăștiați la o înălțime de 5600 picior

METAR: YKRY 260900Z AUTO 08001KT 9999 // SCT056 10/04 Q1020

Ora: 20:28 (10:28 UTC)


TAF: lipsă

Observații și prognoze meteo pentru peste 4.000 de aeroporturi (rapoarte METAR și TAF).

Stațiile disponibile sunt reprezentate pe hartă prin puncte galbene și roșii.

Țineți indicatorul mouse-ului pe punctul dorit pentru a vedea denumirea stației.

Apoi, faceți clic pentru a vedea observațiile și prognozele meteorologice.

Pentru a schimba harta: Pentru mărire, faceți clic pe butoanele verzi cu cruce neagră; pentru micșorare, pe butonul verde cu o liniuță; pentru hărți învecinate, pe săgețile verzi.


METAR-TAF: